Weather History for Storm Lake, IA

Change the Weather History Date:

Tuesday, August 19, 2014

  Actual Average Record
Temperature  
Mean Temperature 70 °F -  
Max Temperature 80 °F 78 °F 93 °F (1998)
Min Temperature 60 °F 60 °F 42 °F (2004)
Cooling Degree Days 5    
Growing Degree Days 20 (Base 50)    
Moisture  
Dew Point 67 °F    
Average Humidity 87    
Maximum Humidity 100    
Minimum Humidity 61    
Precipitation  
Precipitation 0.00 in - - ()
Sea Level Pressure  
Sea Level Pressure 29.82 in    
Wind  
Wind Speed 6 mph (West)    
Max Wind Speed 9 mph    
Max Gust Speed 12 mph    
Visibility 9 miles    
Events      
Averages and records for this station are not official NWS values.
T = Trace of Precipitation, MM = Missing Value Source: NWS Daily Summary

Daily Weather History Graph

Daily Weather History Graph

Search for Another Location

Airport:

Trip Planner

Search our weather history database for the weather conditions in past years. The results will help you decide how hot, cold, wet, or windy it might be!

Date:

Astronomy

Aug. 19, 2014 Rise Set
Actual Time 6:31 AM CDT 8:16 PM CDT
Civil Twilight 6:01 AM CDT 8:46 PM CDT
Nautical Twilight 5:25 AM CDT 9:22 PM CDT
Astronomical Twilight 4:46 AM CDT 10:01 PM CDT
Moon 1:22 AM CDT 4:16 PM CDT
Length of Visible Light 14h 44m
Length of Day
13h 44m
Waning Crescent, 29% of the Moon is Illuminated
Aug 19
Waning Crescent
Aug 25
New
Sep 2
First Quarter
Sep 8
Full
Sep 15
Last Quarter

Hourly Weather History & Observations

Time (CDT) Temp. Heat Index Dew Point Humidity Pressure Visibility Wind Dir Wind Speed Gust Speed Precip Events Conditions
12:00 AM 69.8 °F - 69.8 °F 100% 29.79 in 10.0 mi WNW 6.9 mph - N/A   Partly Cloudy
12:15 AM 69.8 °F - 69.8 °F 100% 29.79 in 10.0 mi West 5.8 mph - N/A   Mostly Cloudy
12:35 AM 68.0 °F - 68.0 °F 100% 29.79 in 10.0 mi West 5.8 mph - N/A   Partly Cloudy
12:55 AM 68.0 °F - 68.0 °F 100% 29.79 in 10.0 mi West 6.9 mph - N/A   Clear
1:15 AM 66.2 °F - 66.2 °F 100% 29.78 in 10.0 mi West 6.9 mph - N/A   Clear
1:35 AM 66.2 °F - 66.2 °F 100% 29.79 in 10.0 mi West 8.1 mph - N/A   Clear
1:55 AM 66.2 °F - 66.2 °F 100% 29.79 in 10.0 mi West 8.1 mph - N/A   Clear
2:15 AM 66.2 °F - 66.2 °F 100% 29.79 in 10.0 mi West 6.9 mph - N/A   Clear
2:35 AM 64.4 °F - 64.4 °F 100% 29.79 in 10.0 mi West 6.9 mph - N/A   Clear
2:55 AM 66.2 °F - 66.2 °F 100% 29.79 in 10.0 mi West 6.9 mph - N/A   Clear
3:15 AM 64.4 °F - 64.4 °F 100% 29.78 in 10.0 mi WNW 5.8 mph - N/A   Clear
3:35 AM 64.4 °F - 64.4 °F 100% 29.78 in 10.0 mi West 6.9 mph - N/A   Clear
3:55 AM 64.4 °F - 64.4 °F 100% 29.78 in 10.0 mi West 8.1 mph - N/A   Clear
4:15 AM 62.6 °F - 62.6 °F 100% 29.79 in 9.0 mi WSW 6.9 mph - N/A   Clear
4:35 AM 62.6 °F - 62.6 °F 100% 29.78 in 9.0 mi West 6.9 mph - N/A   Clear
4:55 AM 62.6 °F - 62.6 °F 100% 29.78 in 9.0 mi West 8.1 mph - N/A   Clear
5:15 AM 62.6 °F - 62.6 °F 100% 29.79 in 9.0 mi West 6.9 mph - N/A   Clear
5:35 AM 62.6 °F - 62.6 °F 100% 29.79 in 8.0 mi West 8.1 mph - N/A   Clear
5:55 AM 60.8 °F - 60.8 °F 100% 29.80 in 9.0 mi West 8.1 mph - N/A   Clear
6:15 AM 60.8 °F - 60.8 °F 100% 29.80 in 6.0 mi West 6.9 mph - N/A   Clear
6:35 AM 60.8 °F - 60.8 °F 100% 29.81 in 5.0 mi West 8.1 mph - N/A   Clear
6:55 AM 60.8 °F - 60.8 °F 100% 29.81 in 5.0 mi West 6.9 mph - N/A   Clear
7:15 AM 62.6 °F - 62.6 °F 100% 29.81 in 7.0 mi WNW 6.9 mph - N/A   Clear
7:35 AM 64.4 °F - 64.4 °F 100% 29.81 in 7.0 mi WNW 5.8 mph - N/A   Clear
7:55 AM 64.4 °F - 64.4 °F 100% 29.82 in 7.0 mi West 6.9 mph - N/A   Clear
8:15 AM 64.4 °F - 64.4 °F 100% 29.82 in 6.0 mi West 9.2 mph - N/A   Clear
8:35 AM 66.2 °F - 66.2 °F 100% 29.83 in 7.0 mi West 6.9 mph - N/A   Clear
8:55 AM 68.0 °F - 68.0 °F 100% 29.83 in 9.0 mi West 5.8 mph - N/A   Clear
9:15 AM 69.8 °F - 68.0 °F 94% 29.83 in 9.0 mi West 6.9 mph - N/A   Clear
9:35 AM 69.8 °F - 69.8 °F 100% 29.84 in 9.0 mi West 5.8 mph - N/A   Clear
9:55 AM 71.6 °F - 69.8 °F 94% 29.84 in 9.0 mi West 4.6 mph - N/A   Clear
10:15 AM 73.4 °F - 69.8 °F 88% 29.84 in 10.0 mi WNW 4.6 mph - N/A   Clear
10:35 AM 73.4 °F - 68.0 °F 83% 29.84 in 10.0 mi WNW 5.8 mph - N/A   Clear
10:55 AM 75.2 °F - 68.0 °F 78% 29.84 in 10.0 mi NW 8.1 mph - N/A   Clear
11:15 AM 75.2 °F - 68.0 °F 78% 29.85 in 10.0 mi Variable 6.9 mph - N/A   Clear
11:35 AM 75.2 °F - 68.0 °F 78% 29.85 in 10.0 mi NW 6.9 mph - N/A   Clear
11:55 AM 77.0 °F - 68.0 °F 74% 29.85 in 10.0 mi Variable 5.8 mph 11.5 mph N/A   Clear
12:15 PM 77.0 °F - 68.0 °F 74% 29.85 in 10.0 mi Variable 6.9 mph - N/A   Clear
12:35 PM 77.0 °F - 68.0 °F 74% 29.85 in 10.0 mi Variable 4.6 mph - N/A   Clear
12:55 PM 77.0 °F - 68.0 °F 74% 29.84 in 10.0 mi Calm Calm - N/A   Clear
1:15 PM 78.8 °F - 68.0 °F 69% 29.84 in 10.0 mi NW 4.6 mph - N/A   Clear
1:35 PM 78.8 °F - 66.2 °F 65% 29.84 in 10.0 mi Calm Calm - N/A   Clear
1:55 PM 78.8 °F - 68.0 °F 69% 29.84 in 10.0 mi West 6.9 mph - N/A   Clear
2:15 PM 78.8 °F - 68.0 °F 69% 29.84 in 10.0 mi Variable 3.5 mph - N/A   Clear
2:35 PM 78.8 °F - 68.0 °F 69% 29.83 in 10.0 mi Variable 3.5 mph - N/A   Clear
2:55 PM 80.6 °F 83.2 °F 68.0 °F 65% 29.84 in 10.0 mi NW 6.9 mph - N/A   Clear
3:15 PM 78.8 °F - 68.0 °F 69% 29.83 in 10.0 mi Calm Calm - N/A   Clear
3:35 PM 80.6 °F 83.2 °F 68.0 °F 65% 29.83 in 10.0 mi NNW 4.6 mph - N/A   Clear
3:55 PM 80.6 °F 83.2 °F 68.0 °F 65% 29.83 in 10.0 mi West 6.9 mph - N/A   Partly Cloudy
4:15 PM 80.6 °F 83.2 °F 68.0 °F 65% 29.82 in - WNW 3.5 mph - N/A   Partly Cloudy
4:35 PM 80.6 °F 82.7 °F 66.2 °F 61% 29.83 in 10.0 mi WSW 4.6 mph - N/A   Partly Cloudy
4:55 PM 80.6 °F 83.2 °F 68.0 °F 65% 29.83 in 10.0 mi WNW 5.8 mph - N/A   Clear
5:35 PM 80.6 °F 83.2 °F 68.0 °F 65% 29.82 in 10.0 mi West 5.8 mph - N/A   Clear
5:55 PM 80.6 °F 83.2 °F 68.0 °F 65% 29.82 in 10.0 mi WNW 4.6 mph - N/A   Clear
6:15 PM 78.8 °F - 68.0 °F 69% 29.82 in 10.0 mi WNW 4.6 mph - N/A   Clear
6:35 PM 78.8 °F - 68.0 °F 69% 29.82 in 10.0 mi Calm Calm - N/A   Clear
6:55 PM 78.8 °F - 69.8 °F 74% 29.82 in 10.0 mi WNW 3.5 mph - N/A   Clear
7:15 PM 78.8 °F - 69.8 °F 74% 29.81 in 10.0 mi Calm Calm - N/A   Clear
7:35 PM 77.0 °F - 69.8 °F 78% 29.82 in 10.0 mi WSW 3.5 mph - N/A   Clear
7:55 PM 73.4 °F - 71.6 °F 94% 29.82 in 7.0 mi SW 3.5 mph - N/A   Clear
8:15 PM 73.4 °F - 69.8 °F 88% 29.82 in 10.0 mi SW 4.6 mph - N/A   Clear
8:35 PM 71.6 °F - 69.8 °F 94% 29.82 in 10.0 mi Calm Calm - N/A   Clear
8:55 PM 69.8 °F - 68.0 °F 94% 29.83 in 10.0 mi SW 3.5 mph - N/A   Clear
9:55 PM 69.8 °F - 66.2 °F 88% 29.84 in 10.0 mi SW 3.5 mph - N/A   Clear
10:15 PM 68.0 °F - 68.0 °F 100% 29.84 in 10.0 mi SW 4.6 mph - N/A   Clear
10:35 PM 69.8 °F - 68.0 °F 94% 29.85 in 10.0 mi SW 3.5 mph - N/A   Clear
10:55 PM 69.8 °F - 68.0 °F 94% 29.85 in 10.0 mi SSW 4.6 mph - N/A   Clear
11:15 PM 69.8 °F - 66.2 °F 88% 29.85 in 10.0 mi Calm Calm - N/A   Clear
11:35 PM 66.2 °F - 66.2 °F 100% 29.85 in 10.0 mi Calm Calm - N/A   Clear
11:55 PM 66.2 °F - 64.4 °F 94% 29.84 in 10.0 mi Calm Calm - N/A   Clear